Home > Weather > Nikšić > Past weeks

Flag for Montenegro Past Weather in Nikšić, Montenegro — Yesterday and Last 2 Weeks

Now
67 °F

Clear.


Feels Like: 67 °F
Forecast: 57 / 83 °F
Wind: 2 mph from Northeast

Location: Niksic

Current Time: Jul 28, 2016 at 5:09:11 AM

Latest Report: Jul 28, 2016 at 2:00 AM


Visibility: 13 mi

Pressure: 29.98 "Hg (27.84 "Hg at 635m altitude)

Humidity: 84%

Dew Point: 62 °F

Location of NikšićLocation

Past Weather in Nikšić — Graph

°F

Nikšić Temperature Yesterday

Maximum temperature yesterday: 85 °F (at 3:00 PM)
Minimum temperature yesterday: 60 °F (at 6:00 AM)
Average temperature yesterday: 76 °F

High & Low Weather Summary for the Past Weeks

 TemperatureHumidityPressure
High88 °F (Jul 24, 1:00 PM)100% (Jul 15, 4:00 PM)30.23 "Hg (Jul 15, 4:00 PM)
Low52 °F (Jul 17, 6:00 AM)39% (Jul 20, 3:00 PM)29.75 "Hg (Jul 15, 12:00 PM)
Average72 °F65%29.94 "Hg
* Reported Jul 13 2:00 AM — Jul 28 2:00 AM, Nikšić, Weather by CustomWeather, © 2016

Note: Actual official high and low records may vary slightly from our data, if they occured in-between our weather recording intervals... More about our weather records

Advertising

Nikšić Weather History for the Previous 24 Hours

Scroll right to see more
 ConditionsComfort  
Time TempWeatherWind HumidityBarometerVisibility
2:00 AM
Thu, Jul 28
67 °FClear.2 mph84%29.98 "Hg12 mi
11:00 PM
Wed, Jul 27
70 °FClear.2 mph74%29.97 "Hg12 mi
10:00 PM72 °FClear.2 mph71%29.95 "Hg12 mi
9:00 PM76 °FPassing clouds.2 mph62%29.93 "Hg12 mi
8:00 PM78 °FPassing clouds.2 mph58%29.92 "Hg12 mi
7:00 PM80 °FScattered clouds.2 mph53%29.90 "Hg12 mi
6:00 PM81 °FPartly sunny.3 mph53%29.90 "Hg12 mi
5:00 PM81 °FOvercast.2 mph54%29.90 "Hg12 mi
4:00 PM83 °FPartly sunny.2 mph50%29.90 "Hg12 mi
3:00 PM85 °FPartly sunny.3 mph48%29.88 "Hg12 mi
2:00 PM84 °FScattered clouds.3 mph49%29.88 "Hg12 mi
1:00 PM83 °FScattered clouds.2 mph48%29.90 "Hg12 mi
12:00 PM81 °FPassing clouds.2 mph50%29.91 "Hg12 mi
11:00 AM79 °FPassing clouds.1 mph55%29.92 "Hg12 mi
10:00 AM75 °FPassing clouds.2 mph62%29.93 "Hg12 mi
9:00 AM72 °FSunny.No wind70%29.95 "Hg12 mi
8:00 AM66 °FSunny.1 mph83%29.99 "Hg12 mi
6:00 AM60 °FSunny.2 mph97%30.02 "Hg12 mi
Weather by CustomWeather, © 2016

See weather overviewHow to use our weather pages